Location: Burtsch�tz
(51.0528°N, 12.1764°E)
Time: 14:56:01
(UTC+00:00)

GEOS 3 Rocket - Pass Details

Date: 29 October 2020
Orbit: 770 x 850 km, 115.0° (Epoch: 28 November)

Event Time Altitude Azimuth Distance (km) Brightness Sun altitude
Exits shadow 18:17:20 43° 148° (SSE) 1,165 4.1 -23.6°
Maximum altitude 18:19:11 80° 228° (SW) 859 3.7 -23.9°
Drops below altitude 10° 18:24:36 10° 316° (NW) 2,480 6.8 -24.7°
Sets 18:26:57 0° 317° (NW) 3,423 7.6 -25.1°
